#datetime,building,power
2022-10-03T00:00:00,pkn,1.20
2022-10-03T00:02:00,pkn,1.20
2022-10-03T00:04:00,pkn,2.40
2022-10-03T00:05:00,pkn,1.20
2022-10-03T00:07:00,pkn,1.20
2022-10-03T00:09:00,pkn,2.40
2022-10-03T00:10:00,pkn,2.40
2022-10-03T00:12:00,pkn,9.60
2022-10-03T00:14:00,pkn,10.80
2022-10-03T00:16:00,pkn,9.60
2022-10-03T00:17:00,pkn,4.80
2022-10-03T00:19:00,pkn,7.20
2022-10-03T00:21:00,pkn,1.20
2022-10-03T00:22:00,pkn,1.20
2022-10-03T00:23:00,pkn,1.20
2022-10-03T00:25:00,pkn,1.20
2022-10-03T00:27:00,pkn,2.40
2022-10-03T00:29:00,pkn,2.40
2022-10-03T00:31:00,pkn,2.40
2022-10-03T00:33:00,pkn,1.20
2022-10-03T00:35:00,pkn,2.40
2022-10-03T00:38:00,pkn,2.40
2022-10-03T00:40:00,pkn,1.20
2022-10-03T00:42:00,pkn,2.40
2022-10-03T00:44:00,pkn,1.20
2022-10-03T00:45:00,pkn,1.20
2022-10-03T00:47:00,pkn,1.20
2022-10-03T00:49:00,pkn,1.20
2022-10-03T00:50:00,pkn,1.20
2022-10-03T00:53:00,pkn,2.40
2022-10-03T00:55:00,pkn,1.20
2022-10-03T00:56:00,pkn,2.40
2022-10-03T00:58:00,pkn,9.60
2022-10-03T01:00:00,pkn,9.60
2022-10-03T01:01:00,pkn,4.80
2022-10-03T01:03:00,pkn,9.60
2022-10-03T01:04:00,pkn,1.20
2022-10-03T01:06:00,pkn,1.20
2022-10-03T01:08:00,pkn,1.20
2022-10-03T01:09:00,pkn,1.20
2022-10-03T01:11:00,pkn,1.20
2022-10-03T01:13:00,pkn,2.40
2022-10-03T01:15:00,pkn,1.20
2022-10-03T01:18:00,pkn,2.40
2022-10-03T01:20:00,pkn,1.20
2022-10-03T01:21:00,pkn,1.20
2022-10-03T01:24:00,pkn,2.40
2022-10-03T01:27:00,pkn,2.40
2022-10-03T01:29:00,pkn,1.20
2022-10-03T01:32:00,pkn,2.40
2022-10-03T01:35:00,pkn,2.40
2022-10-03T01:37:00,pkn,1.20
2022-10-03T01:38:00,pkn,1.20
2022-10-03T01:39:00,pkn,1.20
2022-10-03T01:41:00,pkn,1.20
2022-10-03T01:43:00,pkn,2.40
2022-10-03T01:45:00,pkn,1.20
2022-10-03T01:47:00,pkn,2.40
2022-10-03T01:49:00,pkn,1.20
2022-10-03T01:51:00,pkn,3.60
2022-10-03T01:52:00,pkn,6.00
2022-10-03T01:54:00,pkn,8.40
2022-10-03T01:56:00,pkn,9.60
2022-10-03T01:58:00,pkn,7.20
2022-10-03T02:00:00,pkn,1.20
2022-10-03T02:01:00,pkn,1.20
2022-10-03T02:03:00,pkn,1.20
2022-10-03T02:05:00,pkn,1.20
2022-10-03T02:07:00,pkn,2.40
2022-10-03T02:09:00,pkn,1.20
2022-10-03T02:10:00,pkn,1.20
2022-10-03T02:12:00,pkn,1.20
2022-10-03T02:14:00,pkn,2.40
2022-10-03T02:16:00,pkn,1.20
2022-10-03T02:18:00,pkn,1.20
2022-10-03T02:20:00,pkn,1.20
2022-10-03T02:21:00,pkn,1.20
2022-10-03T02:23:00,pkn,1.20
2022-10-03T02:26:00,pkn,2.40
2022-10-03T02:28:00,pkn,1.20
2022-10-03T02:30:00,pkn,1.20
2022-10-03T02:32:00,pkn,1.20
2022-10-03T02:33:00,pkn,1.20
2022-10-03T02:35:00,pkn,1.20
2022-10-03T02:37:00,pkn,1.20
2022-10-03T02:38:00,pkn,1.20
2022-10-03T02:40:00,pkn,1.20
2022-10-03T02:42:00,pkn,2.40
2022-10-03T02:45:00,pkn,1.20
2022-10-03T02:47:00,pkn,2.40
2022-10-03T02:49:00,pkn,1.20
2022-10-03T02:52:00,pkn,2.40
2022-10-03T02:54:00,pkn,1.20
2022-10-03T02:56:00,pkn,1.20
2022-10-03T02:57:00,pkn,1.20
2022-10-03T02:59:00,pkn,1.20
2022-10-03T03:01:00,pkn,2.40
2022-10-03T03:03:00,pkn,1.20
2022-10-03T03:05:00,pkn,2.40
2022-10-03T03:08:00,pkn,4.80
2022-10-03T03:09:00,pkn,3.60
2022-10-03T03:11:00,pkn,10.80
2022-10-03T03:13:00,pkn,9.60
2022-10-03T03:15:00,pkn,9.60
2022-10-03T03:17:00,pkn,9.60
2022-10-03T03:19:00,pkn,1.20
2022-10-03T03:20:00,pkn,1.20
2022-10-03T03:22:00,pkn,1.20
2022-10-03T03:23:00,pkn,1.20
2022-10-03T03:25:00,pkn,1.20
2022-10-03T03:28:00,pkn,2.40
2022-10-03T03:30:00,pkn,1.20
2022-10-03T03:31:00,pkn,1.20
2022-10-03T03:33:00,pkn,1.20
2022-10-03T03:36:00,pkn,2.40
2022-10-03T03:38:00,pkn,1.20
2022-10-03T03:40:00,pkn,1.20
2022-10-03T03:42:00,pkn,1.20
2022-10-03T03:44:00,pkn,2.40
2022-10-03T03:46:00,pkn,1.20
2022-10-03T03:48:00,pkn,1.20
2022-10-03T03:49:00,pkn,1.20
2022-10-03T03:52:00,pkn,2.40
2022-10-03T03:54:00,pkn,1.20
2022-10-03T03:55:00,pkn,1.20
2022-10-03T03:57:00,pkn,1.20
2022-10-03T03:58:00,pkn,1.20
2022-10-03T04:01:00,pkn,1.20
2022-10-03T04:03:00,pkn,1.20
2022-10-03T04:05:00,pkn,1.20
2022-10-03T04:07:00,pkn,2.40
2022-10-03T04:09:00,pkn,1.20
2022-10-03T04:12:00,pkn,1.20
2022-10-03T04:14:00,pkn,2.40
2022-10-03T04:16:00,pkn,1.20
2022-10-03T04:17:00,pkn,1.20
2022-10-03T04:18:00,pkn,1.20
2022-10-03T04:20:00,pkn,1.20
2022-10-03T04:23:00,pkn,1.20
2022-10-03T04:24:00,pkn,1.20
2022-10-03T04:26:00,pkn,1.20
2022-10-03T04:28:00,pkn,1.20
2022-10-03T04:30:00,pkn,1.20
2022-10-03T04:32:00,pkn,1.20
2022-10-03T04:34:00,pkn,2.40
2022-10-03T04:36:00,pkn,1.20
2022-10-03T04:39:00,pkn,2.40
2022-10-03T04:42:00,pkn,2.40
2022-10-03T04:44:00,pkn,1.20
2022-10-03T04:46:00,pkn,1.20
2022-10-03T04:47:00,pkn,1.20
2022-10-03T04:49:00,pkn,1.20
2022-10-03T04:50:00,pkn,1.20
2022-10-03T04:53:00,pkn,2.40
2022-10-03T04:55:00,pkn,1.20
2022-10-03T04:58:00,pkn,1.20
2022-10-03T04:59:00,pkn,1.20
2022-10-03T05:01:00,pkn,4.80
2022-10-03T05:03:00,pkn,10.80
2022-10-03T05:05:00,pkn,9.60
2022-10-03T05:06:00,pkn,3.60
2022-10-03T05:08:00,pkn,6.00
2022-10-03T05:10:00,pkn,1.20
2022-10-03T05:12:00,pkn,1.20
2022-10-03T05:13:00,pkn,1.20
2022-10-03T05:14:00,pkn,1.20
2022-10-03T05:16:00,pkn,1.20
2022-10-03T05:18:00,pkn,1.20
2022-10-03T05:20:00,pkn,1.20
2022-10-03T05:22:00,pkn,1.20
2022-10-03T05:23:00,pkn,1.20
2022-10-03T05:25:00,pkn,1.20
2022-10-03T05:27:00,pkn,1.20
2022-10-03T05:29:00,pkn,1.20
2022-10-03T05:30:00,pkn,1.20
2022-10-03T05:32:00,pkn,1.20
2022-10-03T05:33:00,pkn,1.20
2022-10-03T05:35:00,pkn,1.20
2022-10-03T05:36:00,pkn,1.20
2022-10-03T05:38:00,pkn,1.20
2022-10-03T05:40:00,pkn,1.20
2022-10-03T05:43:00,pkn,2.40
2022-10-03T05:44:00,pkn,1.20
2022-10-03T05:46:00,pkn,1.20
2022-10-03T05:47:00,pkn,1.20
2022-10-03T05:49:00,pkn,1.20
2022-10-03T05:50:00,pkn,1.20
2022-10-03T05:52:00,pkn,1.20
2022-10-03T05:54:00,pkn,1.20
2022-10-03T05:56:00,pkn,2.40
2022-10-03T05:58:00,pkn,1.20
2022-10-03T06:00:00,pkn,1.20
2022-10-03T06:01:00,pkn,1.20
2022-10-03T06:03:00,pkn,1.20
2022-10-03T06:05:00,pkn,1.20
2022-10-03T06:06:00,pkn,1.20
2022-10-03T06:08:00,pkn,2.40
2022-10-03T06:10:00,pkn,1.20
2022-10-03T06:11:00,pkn,1.20
2022-10-03T06:13:00,pkn,1.20
2022-10-03T06:14:00,pkn,1.20
2022-10-03T06:16:00,pkn,1.20
2022-10-03T06:18:00,pkn,1.20
2022-10-03T06:19:00,pkn,1.20
2022-10-03T06:21:00,pkn,1.20
2022-10-03T06:22:00,pkn,1.20
2022-10-03T06:25:00,pkn,2.40
2022-10-03T06:27:00,pkn,1.20
2022-10-03T06:29:00,pkn,1.20
2022-10-03T06:31:00,pkn,1.20
2022-10-03T06:33:00,pkn,1.20
2022-10-03T06:35:00,pkn,1.20
2022-10-03T06:36:00,pkn,1.20
2022-10-03T06:38:00,pkn,1.20
2022-10-03T06:39:00,pkn,1.20
2022-10-03T06:41:00,pkn,1.20
2022-10-03T06:42:00,pkn,1.20
2022-10-03T06:44:00,pkn,1.20
2022-10-03T06:46:00,pkn,1.20
2022-10-03T06:48:00,pkn,1.20
2022-10-03T06:50:00,pkn,1.20
2022-10-03T06:52:00,pkn,2.40
2022-10-03T06:55:00,pkn,2.40
2022-10-03T06:57:00,pkn,1.20
2022-10-03T07:00:00,pkn,2.40
2022-10-03T07:03:00,pkn,1.20
2022-10-03T07:05:00,pkn,2.40
2022-10-03T07:07:00,pkn,1.20
2022-10-03T07:09:00,pkn,2.40
2022-10-03T07:10:00,pkn,3.60
2022-10-03T07:12:00,pkn,9.60
2022-10-03T07:14:00,pkn,10.80
2022-10-03T07:15:00,pkn,3.60
2022-10-03T07:16:00,pkn,3.60
2022-10-03T07:18:00,pkn,2.40
2022-10-03T07:20:00,pkn,2.40
2022-10-03T07:22:00,pkn,4.80
2022-10-03T07:23:00,pkn,2.40
2022-10-03T07:25:00,pkn,3.60
2022-10-03T07:27:00,pkn,1.20
2022-10-03T07:28:00,pkn,1.20
2022-10-03T07:30:00,pkn,2.40
2022-10-03T07:32:00,pkn,1.20
2022-10-03T07:34:00,pkn,1.20
2022-10-03T07:36:00,pkn,2.40
2022-10-03T07:39:00,pkn,2.40
2022-10-03T07:41:00,pkn,1.20
2022-10-03T07:43:00,pkn,1.20
2022-10-03T07:45:00,pkn,2.40
2022-10-03T07:48:00,pkn,1.20
2022-10-03T07:50:00,pkn,2.40
2022-10-03T07:52:00,pkn,1.20
2022-10-03T07:54:00,pkn,1.20
2022-10-03T07:55:00,pkn,1.20
2022-10-03T07:57:00,pkn,2.40
2022-10-03T07:59:00,pkn,8.40
2022-10-03T08:01:00,pkn,10.80
2022-10-03T08:03:00,pkn,9.60
2022-10-03T08:04:00,pkn,4.80
2022-10-03T08:06:00,pkn,9.60
2022-10-03T08:07:00,pkn,4.80
2022-10-03T08:09:00,pkn,9.60
2022-10-03T08:10:00,pkn,4.80
2022-10-03T08:12:00,pkn,3.60
2022-10-03T08:13:00,pkn,1.20
2022-10-03T08:15:00,pkn,1.20
2022-10-03T08:17:00,pkn,1.20
2022-10-03T08:18:00,pkn,1.20
2022-10-03T08:20:00,pkn,9.60
2022-10-03T08:21:00,pkn,6.00
2022-10-03T08:23:00,pkn,12.00
2022-10-03T08:24:00,pkn,7.20
2022-10-03T08:26:00,pkn,10.80
2022-10-03T08:27:00,pkn,4.80
2022-10-03T08:29:00,pkn,9.60
2022-10-03T08:30:00,pkn,4.80
2022-10-03T08:32:00,pkn,9.60
2022-10-03T08:34:00,pkn,10.80
2022-10-03T08:36:00,pkn,9.60
2022-10-03T08:37:00,pkn,4.80
2022-10-03T08:38:00,pkn,3.60
2022-10-03T08:39:00,pkn,1.20
2022-10-03T08:40:00,pkn,2.40
2022-10-03T08:41:00,pkn,1.20
2022-10-03T08:42:00,pkn,1.20
2022-10-03T08:45:00,pkn,2.40
2022-10-03T08:46:00,pkn,1.20
2022-10-03T08:48:00,pkn,1.20
2022-10-03T08:49:00,pkn,1.20
2022-10-03T08:51:00,pkn,1.20
2022-10-03T08:52:00,pkn,4.80
2022-10-03T08:54:00,pkn,9.60
2022-10-03T08:55:00,pkn,6.00
2022-10-03T08:56:00,pkn,3.60
2022-10-03T08:57:00,pkn,4.80
2022-10-03T08:59:00,pkn,9.60
2022-10-03T09:00:00,pkn,6.00
2022-10-03T09:02:00,pkn,8.40
2022-10-03T09:03:00,pkn,6.00
2022-10-03T09:05:00,pkn,8.40
2022-10-03T09:06:00,pkn,1.20
2022-10-03T09:07:00,pkn,1.20
2022-10-03T09:09:00,pkn,1.20
2022-10-03T09:11:00,pkn,2.40
2022-10-03T09:13:00,pkn,1.20
2022-10-03T09:15:00,pkn,1.20
2022-10-03T09:17:00,pkn,2.40
2022-10-03T09:19:00,pkn,1.20
2022-10-03T09:21:00,pkn,1.20
2022-10-03T09:23:00,pkn,3.60
2022-10-03T09:25:00,pkn,9.60
2022-10-03T09:27:00,pkn,10.80
2022-10-03T09:28:00,pkn,3.60
2022-10-03T09:29:00,pkn,4.80
2022-10-03T09:31:00,pkn,9.60
2022-10-03T09:32:00,pkn,4.80
2022-10-03T09:34:00,pkn,1.20
2022-10-03T09:36:00,pkn,2.40
2022-10-03T09:38:00,pkn,1.20
2022-10-03T09:40:00,pkn,1.20
2022-10-03T09:41:00,pkn,1.20
2022-10-03T09:43:00,pkn,1.20
2022-10-03T09:45:00,pkn,1.20
2022-10-03T09:47:00,pkn,1.20
2022-10-03T09:48:00,pkn,1.20
2022-10-03T09:49:00,pkn,2.40
2022-10-03T09:51:00,pkn,1.20
2022-10-03T09:54:00,pkn,6.00
2022-10-03T09:55:00,pkn,3.60
2022-10-03T09:57:00,pkn,9.60
2022-10-03T09:59:00,pkn,10.80
2022-10-03T10:00:00,pkn,3.60
2022-10-03T10:02:00,pkn,7.20
2022-10-03T10:04:00,pkn,1.20
2022-10-03T10:06:00,pkn,1.20
2022-10-03T10:08:00,pkn,1.20
2022-10-03T10:09:00,pkn,1.20
2022-10-03T10:12:00,pkn,1.20
2022-10-03T10:13:00,pkn,1.20
2022-10-03T10:15:00,pkn,1.20
2022-10-03T10:17:00,pkn,1.20
2022-10-03T10:18:00,pkn,1.20
2022-10-03T10:20:00,pkn,1.20
2022-10-03T10:23:00,pkn,1.20
2022-10-03T10:25:00,pkn,1.20
2022-10-03T10:26:00,pkn,1.20
2022-10-03T10:28:00,pkn,2.40
2022-10-03T10:30:00,pkn,8.40
2022-10-03T10:31:00,pkn,4.80
2022-10-03T10:32:00,pkn,4.80
2022-10-03T10:34:00,pkn,8.40
2022-10-03T10:36:00,pkn,9.60
2022-10-03T10:37:00,pkn,2.40
2022-10-03T10:39:00,pkn,1.20
2022-10-03T10:42:00,pkn,1.20
2022-10-03T10:44:00,pkn,1.20
2022-10-03T10:46:00,pkn,1.20
2022-10-03T10:48:00,pkn,1.20
2022-10-03T10:50:00,pkn,3.60
2022-10-03T10:51:00,pkn,4.80
2022-10-03T10:52:00,pkn,1.20
2022-10-03T10:53:00,pkn,8.40
2022-10-03T10:55:00,pkn,8.40
2022-10-03T10:56:00,pkn,6.00
2022-10-03T10:58:00,pkn,9.60
2022-10-03T10:59:00,pkn,3.60
2022-10-03T11:00:00,pkn,3.60
2022-10-03T11:01:00,pkn,6.00
2022-10-03T11:03:00,pkn,9.60
2022-10-03T11:06:00,pkn,2.40
2022-10-03T11:10:00,pkn,1.20
2022-10-03T11:11:00,pkn,1.20
2022-10-03T11:13:00,pkn,1.20
2022-10-03T11:16:00,pkn,2.40
2022-10-03T11:18:00,pkn,7.20
2022-10-03T11:20:00,pkn,9.60
2022-10-03T11:22:00,pkn,9.60
2022-10-03T11:24:00,pkn,9.60
2022-10-03T11:26:00,pkn,7.20
2022-10-03T11:28:00,pkn,1.20
2022-10-03T11:31:00,pkn,1.20
2022-10-03T11:32:00,pkn,1.20
2022-10-03T11:34:00,pkn,1.20
2022-10-03T11:37:00,pkn,1.20
2022-10-03T11:38:00,pkn,1.20
2022-10-03T11:41:00,pkn,1.20
2022-10-03T11:43:00,pkn,1.20
2022-10-03T11:45:00,pkn,6.00
2022-10-03T11:46:00,pkn,3.60
2022-10-03T11:47:00,pkn,3.60
2022-10-03T11:49:00,pkn,9.60
2022-10-03T11:50:00,pkn,6.00
2022-10-03T11:51:00,pkn,3.60
2022-10-03T11:53:00,pkn,2.40
2022-10-03T11:55:00,pkn,1.20
2022-10-03T11:58:00,pkn,1.20
2022-10-03T12:00:00,pkn,1.20
2022-10-03T12:02:00,pkn,1.20
2022-10-03T12:04:00,pkn,1.20
2022-10-03T12:07:00,pkn,1.20
2022-10-03T12:09:00,pkn,1.20
2022-10-03T12:11:00,pkn,1.20
2022-10-03T12:13:00,pkn,1.20
2022-10-03T12:14:00,pkn,1.20
2022-10-03T12:17:00,pkn,6.00
2022-10-03T12:19:00,pkn,9.60
2022-10-03T12:20:00,pkn,4.80
2022-10-03T12:22:00,pkn,8.40
2022-10-03T12:23:00,pkn,4.80
2022-10-03T12:25:00,pkn,1.20
2022-10-03T12:27:00,pkn,1.20
2022-10-03T12:29:00,pkn,1.20
2022-10-03T12:32:00,pkn,1.20
2022-10-03T12:33:00,pkn,1.20
2022-10-03T12:36:00,pkn,1.20
2022-10-03T12:38:00,pkn,1.20
2022-10-03T12:40:00,pkn,1.20
2022-10-03T12:43:00,pkn,1.20
2022-10-03T12:45:00,pkn,1.20
2022-10-03T12:50:00,pkn,1.20
2022-10-03T12:53:00,pkn,1.20
2022-10-03T12:54:00,pkn,1.20
2022-10-03T12:56:00,pkn,1.20
2022-10-03T12:58:00,pkn,9.60
2022-10-03T13:00:00,pkn,9.60
2022-10-03T13:02:00,pkn,8.40
2022-10-03T13:04:00,pkn,7.20
2022-10-03T13:07:00,pkn,1.20
2022-10-03T13:09:00,pkn,1.20
2022-10-03T13:11:00,pkn,1.20
2022-10-03T13:13:00,pkn,1.20
2022-10-03T13:16:00,pkn,1.20
2022-10-03T13:18:00,pkn,1.20
2022-10-03T13:19:00,pkn,1.20
2022-10-03T13:21:00,pkn,1.20
2022-10-03T13:23:00,pkn,1.20
2022-10-03T13:25:00,pkn,1.20
2022-10-03T13:28:00,pkn,1.20
2022-10-03T13:30:00,pkn,1.20
2022-10-03T13:33:00,pkn,1.20
2022-10-03T13:36:00,pkn,1.20
2022-10-03T13:39:00,pkn,1.20
2022-10-03T13:41:00,pkn,1.20
2022-10-03T13:43:00,pkn,1.20
2022-10-03T13:47:00,pkn,1.20
2022-10-03T13:50:00,pkn,6.00
2022-10-03T13:51:00,pkn,4.80
2022-10-03T13:52:00,pkn,4.80
2022-10-03T13:54:00,pkn,8.40
2022-10-03T13:56:00,pkn,8.40
2022-10-03T13:57:00,pkn,1.20
2022-10-03T13:59:00,pkn,1.20
2022-10-03T14:01:00,pkn,1.20
2022-10-03T14:03:00,pkn,1.20
2022-10-03T14:07:00,pkn,1.20
2022-10-03T14:09:00,pkn,1.20
2022-10-03T14:10:00,pkn,1.20
2022-10-03T14:12:00,pkn,1.20
2022-10-03T14:15:00,pkn,1.20
2022-10-03T14:17:00,pkn,1.20
2022-10-03T14:20:00,pkn,1.20
2022-10-03T14:21:00,pkn,1.20
2022-10-03T14:23:00,pkn,1.20
2022-10-03T14:25:00,pkn,1.20
2022-10-03T14:27:00,pkn,1.20
2022-10-03T14:30:00,pkn,1.20
2022-10-03T14:32:00,pkn,1.20
2022-10-03T14:34:00,pkn,1.20
2022-10-03T14:38:00,pkn,1.20
2022-10-03T14:40:00,pkn,1.20
2022-10-03T14:42:00,pkn,1.20
2022-10-03T14:44:00,pkn,1.20
2022-10-03T14:46:00,pkn,1.20
2022-10-03T14:49:00,pkn,1.20
2022-10-03T14:51:00,pkn,1.20
2022-10-03T14:53:00,pkn,1.20
2022-10-03T14:56:00,pkn,1.20
2022-10-03T14:57:00,pkn,1.20
2022-10-03T14:59:00,pkn,9.60
2022-10-03T15:00:00,pkn,1.20
2022-10-03T15:01:00,pkn,8.40
2022-10-03T15:02:00,pkn,1.20
2022-10-03T15:03:00,pkn,8.40
2022-10-03T15:06:00,pkn,1.20
2022-10-03T15:08:00,pkn,1.20
2022-10-03T15:09:00,pkn,1.20
2022-10-03T15:10:00,pkn,1.20
2022-10-03T15:12:00,pkn,1.20
2022-10-03T15:14:00,pkn,1.20
2022-10-03T15:16:00,pkn,1.20
2022-10-03T15:19:00,pkn,1.20
2022-10-03T15:21:00,pkn,1.20
2022-10-03T15:22:00,pkn,1.20
2022-10-03T15:24:00,pkn,1.20
2022-10-03T15:26:00,pkn,1.20
2022-10-03T15:28:00,pkn,1.20
2022-10-03T15:31:00,pkn,2.40
2022-10-03T15:34:00,pkn,1.20
2022-10-03T15:36:00,pkn,1.20
2022-10-03T15:38:00,pkn,1.20
2022-10-03T15:40:00,pkn,1.20
2022-10-03T15:42:00,pkn,1.20
2022-10-03T15:43:00,pkn,1.20
2022-10-03T15:45:00,pkn,1.20
2022-10-03T15:48:00,pkn,1.20
2022-10-03T15:49:00,pkn,1.20
2022-10-03T15:51:00,pkn,1.20
2022-10-03T15:55:00,pkn,1.20
2022-10-03T15:57:00,pkn,1.20
2022-10-03T16:00:00,pkn,1.20
2022-10-03T16:01:00,pkn,1.20
2022-10-03T16:03:00,pkn,1.20
2022-10-03T16:07:00,pkn,1.20
2022-10-03T16:08:00,pkn,1.20
2022-10-03T16:10:00,pkn,1.20
2022-10-03T16:12:00,pkn,9.60
2022-10-03T16:14:00,pkn,9.60
2022-10-03T16:15:00,pkn,4.80
2022-10-03T16:17:00,pkn,7.20
2022-10-03T16:20:00,pkn,1.20
2022-10-03T16:22:00,pkn,1.20
2022-10-03T16:25:00,pkn,1.20
2022-10-03T16:27:00,pkn,1.20
2022-10-03T16:29:00,pkn,1.20
2022-10-03T16:32:00,pkn,1.20
2022-10-03T16:34:00,pkn,1.20
2022-10-03T16:37:00,pkn,1.20
2022-10-03T16:39:00,pkn,1.20
2022-10-03T16:42:00,pkn,1.20
2022-10-03T16:45:00,pkn,1.20
2022-10-03T16:46:00,pkn,1.20
2022-10-03T16:49:00,pkn,1.20
2022-10-03T16:51:00,pkn,1.20
2022-10-03T16:54:00,pkn,1.20
2022-10-03T16:55:00,pkn,1.20
2022-10-03T16:58:00,pkn,1.20
2022-10-03T17:00:00,pkn,1.20
2022-10-03T17:02:00,pkn,1.20
2022-10-03T17:03:00,pkn,1.20
2022-10-03T17:05:00,pkn,1.20
2022-10-03T17:06:00,pkn,1.20
2022-10-03T17:07:00,pkn,1.20
2022-10-03T17:09:00,pkn,1.20
2022-10-03T17:11:00,pkn,1.20
2022-10-03T17:13:00,pkn,2.40
2022-10-03T17:15:00,pkn,1.20
2022-10-03T17:17:00,pkn,2.40
2022-10-03T17:19:00,pkn,1.20
2022-10-03T17:21:00,pkn,1.20
2022-10-03T17:23:00,pkn,2.40
2022-10-03T17:25:00,pkn,1.20
2022-10-03T17:26:00,pkn,1.20
2022-10-03T17:28:00,pkn,1.20
2022-10-03T17:29:00,pkn,1.20
2022-10-03T17:31:00,pkn,1.20
2022-10-03T17:32:00,pkn,9.60
2022-10-03T17:34:00,pkn,14.40
2022-10-03T17:35:00,pkn,7.20
2022-10-03T17:37:00,pkn,14.40
2022-10-03T17:39:00,pkn,7.20
2022-10-03T17:41:00,pkn,7.20
2022-10-03T17:42:00,pkn,2.40
2022-10-03T17:44:00,pkn,7.20
2022-10-03T17:46:00,pkn,6.00
2022-10-03T17:48:00,pkn,4.80
2022-10-03T17:51:00,pkn,6.00
2022-10-03T17:53:00,pkn,3.60
2022-10-03T17:55:00,pkn,2.40
2022-10-03T17:57:00,pkn,4.80
2022-10-03T17:59:00,pkn,2.40
2022-10-03T18:00:00,pkn,2.40
2022-10-03T18:02:00,pkn,2.40
2022-10-03T18:03:00,pkn,1.20
2022-10-03T18:05:00,pkn,6.00
2022-10-03T18:07:00,pkn,6.00
2022-10-03T18:08:00,pkn,3.60
2022-10-03T18:10:00,pkn,10.80
2022-10-03T18:12:00,pkn,3.60
2022-10-03T18:14:00,pkn,3.60
2022-10-03T18:16:00,pkn,3.60
2022-10-03T18:18:00,pkn,2.40
2022-10-03T18:19:00,pkn,1.20
2022-10-03T18:21:00,pkn,2.40
2022-10-03T18:22:00,pkn,1.20
2022-10-03T18:23:00,pkn,1.20
2022-10-03T18:24:00,pkn,1.20
2022-10-03T18:26:00,pkn,1.20
2022-10-03T18:28:00,pkn,1.20
2022-10-03T18:30:00,pkn,1.20
2022-10-03T18:31:00,pkn,1.20
2022-10-03T18:33:00,pkn,1.20
2022-10-03T18:35:00,pkn,9.60
2022-10-03T18:37:00,pkn,9.60
2022-10-03T18:39:00,pkn,10.80
2022-10-03T18:40:00,pkn,2.40
2022-10-03T18:42:00,pkn,1.20
2022-10-03T18:43:00,pkn,1.20
2022-10-03T18:45:00,pkn,2.40
2022-10-03T18:47:00,pkn,2.40
2022-10-03T18:48:00,pkn,1.20
2022-10-03T18:50:00,pkn,1.20
2022-10-03T18:52:00,pkn,2.40
2022-10-03T18:53:00,pkn,1.20
2022-10-03T18:55:00,pkn,2.40
2022-10-03T18:57:00,pkn,2.40
2022-10-03T18:59:00,pkn,1.20
2022-10-03T19:01:00,pkn,2.40
2022-10-03T19:03:00,pkn,2.40
2022-10-03T19:04:00,pkn,1.20
2022-10-03T19:06:00,pkn,2.40
2022-10-03T19:07:00,pkn,1.20
2022-10-03T19:09:00,pkn,2.40
2022-10-03T19:11:00,pkn,1.20
2022-10-03T19:13:00,pkn,2.40
2022-10-03T19:15:00,pkn,2.40
2022-10-03T19:16:00,pkn,1.20
2022-10-03T19:18:00,pkn,2.40
2022-10-03T19:20:00,pkn,1.20
2022-10-03T19:22:00,pkn,2.40
2022-10-03T19:23:00,pkn,1.20
2022-10-03T19:24:00,pkn,3.60
2022-10-03T19:26:00,pkn,9.60
2022-10-03T19:28:00,pkn,10.80
2022-10-03T19:30:00,pkn,10.80
2022-10-03T19:31:00,pkn,3.60
2022-10-03T19:32:00,pkn,3.60
2022-10-03T19:34:00,pkn,2.40
2022-10-03T19:36:00,pkn,2.40
2022-10-03T19:38:00,pkn,1.20
2022-10-03T19:39:00,pkn,1.20
2022-10-03T19:40:00,pkn,1.20
2022-10-03T19:42:00,pkn,2.40
2022-10-03T19:44:00,pkn,2.40
2022-10-03T19:46:00,pkn,2.40
2022-10-03T19:48:00,pkn,1.20
2022-10-03T19:49:00,pkn,1.20
2022-10-03T19:51:00,pkn,2.40
2022-10-03T19:52:00,pkn,1.20
2022-10-03T19:54:00,pkn,2.40
2022-10-03T19:55:00,pkn,1.20
2022-10-03T19:57:00,pkn,7.20
2022-10-03T19:58:00,pkn,4.80
2022-10-03T20:00:00,pkn,10.80
2022-10-03T20:01:00,pkn,4.80
2022-10-03T20:03:00,pkn,9.60
2022-10-03T20:04:00,pkn,3.60
2022-10-03T20:06:00,pkn,2.40
2022-10-03T20:08:00,pkn,2.40
2022-10-03T20:11:00,pkn,2.40
2022-10-03T20:13:00,pkn,1.20
2022-10-03T20:15:00,pkn,2.40
2022-10-03T20:17:00,pkn,1.20
2022-10-03T20:19:00,pkn,2.40
2022-10-03T20:22:00,pkn,2.40
2022-10-03T20:24:00,pkn,2.40
2022-10-03T20:27:00,pkn,2.40
2022-10-03T20:29:00,pkn,1.20
2022-10-03T20:30:00,pkn,1.20
2022-10-03T20:31:00,pkn,1.20
2022-10-03T20:33:00,pkn,2.40
2022-10-03T20:35:00,pkn,3.60
2022-10-03T20:37:00,pkn,10.80
2022-10-03T20:38:00,pkn,6.00
2022-10-03T20:40:00,pkn,8.40
2022-10-03T20:42:00,pkn,10.80
2022-10-03T20:44:00,pkn,9.60
2022-10-03T20:45:00,pkn,6.00
2022-10-03T20:46:00,pkn,1.20
2022-10-03T20:47:00,pkn,12.00
2022-10-03T20:49:00,pkn,13.20
2022-10-03T20:50:00,pkn,6.00
2022-10-03T20:52:00,pkn,8.40
2022-10-03T20:54:00,pkn,1.20
2022-10-03T20:56:00,pkn,2.40
2022-10-03T20:57:00,pkn,1.20
2022-10-03T20:58:00,pkn,1.20
2022-10-03T21:00:00,pkn,1.20
2022-10-03T21:01:00,pkn,1.20
2022-10-03T21:03:00,pkn,2.40
2022-10-03T21:05:00,pkn,1.20
2022-10-03T21:07:00,pkn,2.40
2022-10-03T21:08:00,pkn,1.20
2022-10-03T21:09:00,pkn,2.40
2022-10-03T21:10:00,pkn,4.80
2022-10-03T21:12:00,pkn,10.80
2022-10-03T21:13:00,pkn,4.80
2022-10-03T21:15:00,pkn,10.80
2022-10-03T21:17:00,pkn,4.80
2022-10-03T21:19:00,pkn,2.40
2022-10-03T21:21:00,pkn,1.20
2022-10-03T21:23:00,pkn,2.40
2022-10-03T21:25:00,pkn,2.40
2022-10-03T21:26:00,pkn,1.20
2022-10-03T21:28:00,pkn,3.60
2022-10-03T21:30:00,pkn,2.40
2022-10-03T21:31:00,pkn,1.20
2022-10-03T21:33:00,pkn,1.20
2022-10-03T21:34:00,pkn,1.20
2022-10-03T21:35:00,pkn,2.40
2022-10-03T21:36:00,pkn,2.40
2022-10-03T21:38:00,pkn,2.40
2022-10-03T21:40:00,pkn,9.60
2022-10-03T21:41:00,pkn,6.00
2022-10-03T21:43:00,pkn,10.80
2022-10-03T21:45:00,pkn,9.60
2022-10-03T21:46:00,pkn,4.80
2022-10-03T21:48:00,pkn,2.40
2022-10-03T21:50:00,pkn,1.20
2022-10-03T21:51:00,pkn,1.20
2022-10-03T21:52:00,pkn,1.20
2022-10-03T21:53:00,pkn,1.20
2022-10-03T21:55:00,pkn,2.40
2022-10-03T21:57:00,pkn,2.40
2022-10-03T22:00:00,pkn,2.40
2022-10-03T22:02:00,pkn,2.40
2022-10-03T22:03:00,pkn,1.20
2022-10-03T22:05:00,pkn,1.20
2022-10-03T22:06:00,pkn,1.20
2022-10-03T22:08:00,pkn,2.40
2022-10-03T22:10:00,pkn,2.40
2022-10-03T22:11:00,pkn,3.60
2022-10-03T22:13:00,pkn,10.80
2022-10-03T22:14:00,pkn,4.80
2022-10-03T22:16:00,pkn,8.40
2022-10-03T22:17:00,pkn,7.20
2022-10-03T22:19:00,pkn,9.60
2022-10-03T22:20:00,pkn,1.20
2022-10-03T22:22:00,pkn,1.20
2022-10-03T22:23:00,pkn,1.20
2022-10-03T22:25:00,pkn,1.20
2022-10-03T22:27:00,pkn,1.20
2022-10-03T22:28:00,pkn,1.20
2022-10-03T22:30:00,pkn,2.40
2022-10-03T22:32:00,pkn,2.40
2022-10-03T22:34:00,pkn,1.20
2022-10-03T22:36:00,pkn,2.40
2022-10-03T22:38:00,pkn,1.20
2022-10-03T22:39:00,pkn,1.20
2022-10-03T22:42:00,pkn,2.40
2022-10-03T22:43:00,pkn,1.20
2022-10-03T22:45:00,pkn,2.40
2022-10-03T22:47:00,pkn,1.20
2022-10-03T22:49:00,pkn,2.40
2022-10-03T22:51:00,pkn,1.20
2022-10-03T22:52:00,pkn,1.20
2022-10-03T22:54:00,pkn,1.20
2022-10-03T22:56:00,pkn,9.60
2022-10-03T22:58:00,pkn,9.60
2022-10-03T22:59:00,pkn,4.80
2022-10-03T23:00:00,pkn,6.00
2022-10-03T23:02:00,pkn,10.80
2022-10-03T23:03:00,pkn,3.60
2022-10-03T23:05:00,pkn,2.40
2022-10-03T23:07:00,pkn,1.20
2022-10-03T23:09:00,pkn,2.40
2022-10-03T23:10:00,pkn,1.20
2022-10-03T23:11:00,pkn,1.20
2022-10-03T23:13:00,pkn,1.20
2022-10-03T23:15:00,pkn,2.40
2022-10-03T23:17:00,pkn,2.40
2022-10-03T23:18:00,pkn,2.40
2022-10-03T23:19:00,pkn,8.40
2022-10-03T23:20:00,pkn,4.80
2022-10-03T23:22:00,pkn,10.80
2022-10-03T23:23:00,pkn,4.80
2022-10-03T23:25:00,pkn,9.60
2022-10-03T23:27:00,pkn,9.60
2022-10-03T23:28:00,pkn,6.00
2022-10-03T23:30:00,pkn,9.60
2022-10-03T23:31:00,pkn,6.00
2022-10-03T23:32:00,pkn,4.80
2022-10-03T23:34:00,pkn,1.20
2022-10-03T23:35:00,pkn,1.20
2022-10-03T23:37:00,pkn,2.40
2022-10-03T23:38:00,pkn,1.20
2022-10-03T23:40:00,pkn,2.40
2022-10-03T23:42:00,pkn,2.40
2022-10-03T23:44:00,pkn,1.20
2022-10-03T23:45:00,pkn,1.20
2022-10-03T23:47:00,pkn,9.60
2022-10-03T23:48:00,pkn,6.00
2022-10-03T23:50:00,pkn,8.40
2022-10-03T23:51:00,pkn,6.00
2022-10-03T23:53:00,pkn,9.60
2022-10-03T23:55:00,pkn,3.60
2022-10-03T23:58:00,pkn,1.20
